Time,TemperatureF,DewpointF,PressureIn,WindDirection,WindDirectionDegrees,WindSpeedMPH,WindSpeedGustMPH,Humidity,HourlyPrecipIn,Conditions,Clouds,dailyrainin,SoftwareType,DateUTC
2013-04-19 00:03:00,35.2,30.6,30.16,West,270,0.0,-999.0,83,-99.99,,,0.00,Acu-Link.com,2013-04-19 05:03:00,
2013-04-19 00:18:00,34.5,30.5,30.17,West,270,0.0,-999.0,85,-99.99,,,0.00,Acu-Link.com,2013-04-19 05:18:00,
2013-04-19 00:33:00,34.3,29.7,30.17,West,270,0.0,-999.0,83,-99.99,,,0.00,Acu-Link.com,2013-04-19 05:33:00,
2013-04-19 00:48:00,33.6,29.6,30.17,West,270,0.0,-999.0,85,-99.99,,,0.00,Acu-Link.com,2013-04-19 05:48:00,
2013-04-19 01:04:00,32.5,29.9,30.18,West,270,0.0,-999.0,90,-99.99,,,0.00,Acu-Link.com,2013-04-19 06:04:00,
2013-04-19 01:19:00,32.0,29.9,30.18,West,270,0.0,-999.0,92,-99.99,,,0.00,Acu-Link.com,2013-04-19 06:19:00,
2013-04-19 01:34:00,31.8,30.0,30.18,WNW,292,2.7,-999.0,93,-99.99,,,0.00,Acu-Link.com,2013-04-19 06:34:00,
2013-04-19 01:49:00,31.5,29.9,30.17,WNW,292,0.0,-999.0,94,-99.99,,,0.00,Acu-Link.com,2013-04-19 06:49:00,
2013-04-19 02:04:00,31.1,29.3,30.17,West,270,0.0,-999.0,93,-99.99,,,0.00,Acu-Link.com,2013-04-19 07:04:00,
2013-04-19 02:20:00,32.0,28.6,30.17,West,270,0.0,-999.0,87,-99.99,,,0.00,Acu-Link.com,2013-04-19 07:20:00,
2013-04-19 02:35:00,31.8,28.4,30.17,West,270,0.0,-999.0,87,-99.99,,,0.00,Acu-Link.com,2013-04-19 07:35:00,
2013-04-19 02:50:00,31.6,28.2,30.17,West,270,0.0,-999.0,87,-99.99,,,0.00,Acu-Link.com,2013-04-19 07:50:00,
2013-04-19 03:05:00,31.5,27.8,30.17,WNW,292,0.0,-999.0,86,-99.99,,,0.00,Acu-Link.com,2013-04-19 08:05:00,
2013-04-19 03:20:00,31.6,27.7,30.17,West,270,0.0,-999.0,85,-99.99,,,0.00,Acu-Link.com,2013-04-19 08:20:00,
2013-04-19 03:36:00,30.6,27.4,30.18,NNW,337,5.1,-999.0,88,-99.99,,,0.00,Acu-Link.com,2013-04-19 08:36:00,
2013-04-19 03:51:00,32.7,27.2,30.18,NW,315,5.1,-999.0,80,-99.99,,,0.00,Acu-Link.com,2013-04-19 08:51:00,
2013-04-19 04:06:00,32.0,27.1,30.18,NW,315,5.8,-999.0,82,-99.99,,,0.00,Acu-Link.com,2013-04-19 09:06:00,
2013-04-19 04:21:00,30.6,27.2,30.19,West,270,4.7,-999.0,87,-99.99,,,0.00,Acu-Link.com,2013-04-19 09:21:00,
2013-04-19 04:36:00,30.4,27.0,30.19,NNW,337,4.3,-999.0,87,-99.99,,,0.00,Acu-Link.com,2013-04-19 09:36:00,
2013-04-19 04:52:00,30.7,26.2,30.19,NW,315,6.3,-999.0,83,-99.99,,,0.00,Acu-Link.com,2013-04-19 09:52:00,
2013-04-19 05:07:00,30.2,26.0,30.19,NW,315,4.3,-999.0,84,-99.99,,,0.00,Acu-Link.com,2013-04-19 10:07:00,
2013-04-19 05:22:00,29.8,26.2,30.19,West,270,4.3,-999.0,86,-99.99,,,0.00,Acu-Link.com,2013-04-19 10:22:00,
2013-04-19 05:37:00,29.7,26.0,30.19,WNW,292,3.8,-999.0,86,-99.99,,,0.00,Acu-Link.com,2013-04-19 10:37:00,
2013-04-19 05:52:00,28.8,25.4,30.19,West,270,2.7,-999.0,87,-99.99,,,0.00,Acu-Link.com,2013-04-19 10:52:00,
2013-04-19 06:08:00,28.6,25.2,30.19,West,270,0.0,-999.0,87,-99.99,,,0.00,Acu-Link.com,2013-04-19 11:08:00,
2013-04-19 06:23:00,28.8,24.5,30.20,West,270,0.0,-999.0,84,-99.99,,,0.00,Acu-Link.com,2013-04-19 11:23:00,
2013-04-19 06:38:00,28.8,24.0,30.20,West,270,0.0,-999.0,82,-99.99,,,0.00,Acu-Link.com,2013-04-19 11:38:00,
2013-04-19 06:53:00,30.0,24.0,30.21,West,270,0.0,-999.0,78,-99.99,,,0.00,Acu-Link.com,2013-04-19 11:53:00,
2013-04-19 07:09:00,28.8,24.0,30.21,West,270,0.0,-999.0,82,-99.99,,,0.00,Acu-Link.com,2013-04-19 12:09:00,
2013-04-19 07:24:00,30.0,24.3,30.22,West,270,0.0,-999.0,79,-99.99,,,0.00,Acu-Link.com,2013-04-19 12:24:00,
2013-04-19 07:39:00,30.6,24.8,30.23,West,270,0.0,-999.0,79,-99.99,,,0.00,Acu-Link.com,2013-04-19 12:39:00,
2013-04-19 07:54:00,31.1,25.4,30.23,West,270,0.0,-999.0,79,-99.99,,,0.00,Acu-Link.com,2013-04-19 12:54:00,
2013-04-19 08:09:00,32.4,26.3,30.23,West,270,0.0,-999.0,78,-99.99,,,0.00,Acu-Link.com,2013-04-19 13:09:00,
2013-04-19 08:25:00,33.8,27.4,30.24,West,270,0.0,-999.0,77,-99.99,,,0.00,Acu-Link.com,2013-04-19 13:25:00,
2013-04-19 08:40:00,35.6,28.5,30.24,West,270,0.0,-999.0,75,-99.99,,,0.00,Acu-Link.com,2013-04-19 13:40:00,
2013-04-19 08:55:00,37.8,28.9,30.24,West,270,0.0,-999.0,70,-99.99,,,0.00,Acu-Link.com,2013-04-19 13:55:00,
2013-04-19 10:28:00,48.7,28.9,30.23,West,270,0.0,-999.0,46,-99.99,,,0.00,Acu-Link.com,2013-04-19 15:28:00,
2013-04-19 10:44:00,51.1,27.6,30.24,West,270,11.4,-999.0,40,-99.99,,,0.00,Acu-Link.com,2013-04-19 15:44:00,
2013-04-19 10:59:00,52.3,28.7,30.23,WSW,247,8.9,-999.0,40,-99.99,,,0.00,Acu-Link.com,2013-04-19 15:59:00,
2013-04-19 11:14:00,53.6,28.0,30.23,West,270,8.9,-999.0,37,-99.99,,,0.00,Acu-Link.com,2013-04-19 16:14:00,
2013-04-19 11:29:00,54.7,28.3,30.22,West,270,5.8,-999.0,36,-99.99,,,0.00,Acu-Link.com,2013-04-19 16:29:00,
2013-04-19 11:44:00,55.6,29.1,30.22,West,270,5.8,-999.0,36,-99.99,,,0.00,Acu-Link.com,2013-04-19 16:44:00,
2013-04-19 12:00:00,56.1,28.1,30.22,WNW,292,8.3,-999.0,34,-99.99,,,0.00,Acu-Link.com,2013-04-19 17:00:00,
2013-04-19 12:15:00,58.8,28.3,30.21,West,270,13.0,-999.0,31,-99.99,,,0.00,Acu-Link.com,2013-04-19 17:15:00,
2013-04-19 12:30:00,59.2,28.6,30.21,West,270,8.9,-999.0,31,-99.99,,,0.00,Acu-Link.com,2013-04-19 17:30:00,
2013-04-19 12:45:00,60.3,27.0,30.20,West,270,13.4,-999.0,28,-99.99,,,0.00,Acu-Link.com,2013-04-19 17:45:00,
2013-04-19 13:00:00,60.6,29.0,30.19,West,270,7.8,-999.0,30,-99.99,,,0.00,Acu-Link.com,2013-04-19 18:00:00,
2013-04-19 13:16:00,62.6,28.2,30.17,West,270,8.3,-999.0,27,-99.99,,,0.00,Acu-Link.com,2013-04-19 18:16:00,
2013-04-19 13:31:00,62.8,25.5,30.17,West,270,6.3,-999.0,24,-99.99,,,0.00,Acu-Link.com,2013-04-19 18:31:00,
2013-04-19 13:46:00,64.0,27.5,30.16,West,270,8.9,-999.0,25,-99.99,,,0.00,Acu-Link.com,2013-04-19 18:46:00,
2013-04-19 14:01:00,64.2,25.7,30.14,West,270,11.4,-999.0,23,-99.99,,,0.00,Acu-Link.com,2013-04-19 19:01:00,
2013-04-19 14:16:00,64.9,25.2,30.14,West,270,7.8,-999.0,22,-99.99,,,0.00,Acu-Link.com,2013-04-19 19:16:00,
2013-04-19 14:32:00,65.5,25.6,30.13,West,270,7.4,-999.0,22,-99.99,,,0.00,Acu-Link.com,2013-04-19 19:32:00,
2013-04-19 14:47:00,67.3,24.8,30.12,West,270,8.9,-999.0,20,-99.99,,,0.00,Acu-Link.com,2013-04-19 19:47:00,
2013-04-19 15:02:00,67.3,16.5,30.11,SW,225,8.3,-999.0,14,-99.99,,,0.00,Acu-Link.com,2013-04-19 20:02:00,
2013-04-19 15:17:00,67.5,13.1,30.10,SW,225,4.3,-999.0,12,-99.99,,,0.00,Acu-Link.com,2013-04-19 20:17:00,
2013-04-19 15:33:00,69.1,68.8,30.09,West,270,8.3,-999.0,99,-99.99,,,0.00,Acu-Link.com,2013-04-19 20:33:00,
2013-04-19 15:48:00,70.0,69.7,30.08,West,270,13.0,-999.0,99,-99.99,,,0.00,Acu-Link.com,2013-04-19 20:48:00,
2013-04-19 16:03:00,68.9,68.6,30.07,West,270,4.3,-999.0,99,-99.99,,,0.00,Acu-Link.com,2013-04-19 21:03:00,
2013-04-19 16:18:00,70.5,70.2,30.06,West,270,14.1,-999.0,99,-99.99,,,0.00,Acu-Link.com,2013-04-19 21:18:00,
2013-04-19 16:33:00,70.2,69.9,30.06,West,270,11.9,-999.0,99,-99.99,,,0.00,Acu-Link.com,2013-04-19 21:33:00,
2013-04-19 16:49:00,70.9,70.6,30.05,West,270,14.1,-999.0,99,-99.99,,,0.00,Acu-Link.com,2013-04-19 21:49:00,
2013-04-19 17:04:00,70.5,70.2,30.04,West,270,9.4,-999.0,99,-99.99,,,0.00,Acu-Link.com,2013-04-19 22:04:00,
2013-04-19 17:19:00,70.0,69.7,30.04,WNW,292,6.3,-999.0,99,-99.99,,,0.00,Acu-Link.com,2013-04-19 22:19:00,
2013-04-19 17:34:00,70.5,70.2,30.04,West,270,6.7,-999.0,99,-99.99,,,0.00,Acu-Link.com,2013-04-19 22:34:00,
2013-04-19 17:49:00,70.3,70.0,30.03,WSW,247,8.9,-999.0,99,-99.99,,,0.00,Acu-Link.com,2013-04-19 22:49:00,
2013-04-19 18:05:00,70.5,70.2,30.03,West,270,11.0,-999.0,99,-99.99,,,0.00,Acu-Link.com,2013-04-19 23:05:00,
2013-04-19 18:20:00,70.2,69.9,30.03,WNW,292,5.8,-999.0,99,-99.99,,,0.00,Acu-Link.com,2013-04-19 23:20:00,
2013-04-19 18:35:00,70.3,70.0,30.03,West,270,7.4,-999.0,99,-99.99,,,0.00,Acu-Link.com,2013-04-19 23:35:00,
2013-04-19 18:50:00,70.9,70.6,30.02,West,270,6.7,-999.0,99,-99.99,,,0.00,Acu-Link.com,2013-04-19 23:50:00,
2013-04-19 19:05:00,70.0,69.7,30.02,WNW,292,4.7,-999.0,99,-99.99,,,0.00,Acu-Link.com,2013-04-20 00:05:00,
2013-04-19 19:21:00,68.5,68.2,30.02,WNW,292,0.0,-999.0,99,-99.99,,,0.00,Acu-Link.com,2013-04-20 00:21:00,
2013-04-19 19:36:00,68.5,68.2,30.02,West,270,0.0,-999.0,99,-99.99,,,0.00,Acu-Link.com,2013-04-20 00:36:00,
2013-04-19 19:51:00,66.9,66.6,30.02,WSW,247,0.0,-999.0,99,-99.99,,,0.00,Acu-Link.com,2013-04-20 00:51:00,
2013-04-19 20:06:00,64.8,21.5,30.02,West,270,0.0,-999.0,19,-99.99,,,0.00,Acu-Link.com,2013-04-20 01:06:00,
2013-04-19 20:22:00,63.5,24.0,30.01,South,180,0.0,-999.0,22,-99.99,,,0.00,Acu-Link.com,2013-04-20 01:22:00,
2013-04-19 20:37:00,62.1,27.7,30.02,SSE,157,0.0,-999.0,27,-99.99,,,0.00,Acu-Link.com,2013-04-20 01:37:00,
2013-04-19 20:52:00,60.6,32.1,30.02,SE,135,0.0,-999.0,34,-99.99,,,0.00,Acu-Link.com,2013-04-20 01:52:00,
2013-04-19 21:07:00,59.9,32.2,30.03,ESE,112,0.0,-999.0,35,-99.99,,,0.00,Acu-Link.com,2013-04-20 02:07:00,
2013-04-19 21:22:00,59.5,33.9,30.03,South,180,4.7,-999.0,38,-99.99,,,0.00,Acu-Link.com,2013-04-20 02:22:00,
2013-04-19 21:38:00,59.2,33.6,30.04,SSE,157,7.8,-999.0,38,-99.99,,,0.00,Acu-Link.com,2013-04-20 02:38:00,
2013-04-19 21:53:00,59.0,32.8,30.05,WSW,247,6.3,-999.0,37,-99.99,,,0.00,Acu-Link.com,2013-04-20 02:53:00,
2013-04-19 22:08:00,58.1,33.3,30.04,ESE,112,7.8,-999.0,39,-99.99,,,0.00,Acu-Link.com,2013-04-20 03:08:00,
2013-04-19 22:23:00,57.0,34.2,30.05,South,180,9.4,-999.0,42,-99.99,,,0.00,Acu-Link.com,2013-04-20 03:23:00,
2013-04-19 22:38:00,57.2,33.1,30.04,SSE,157,7.8,-999.0,40,-99.99,,,0.00,Acu-Link.com,2013-04-20 03:38:00,
2013-04-19 22:54:00,56.5,33.7,30.05,SE,135,11.0,-999.0,42,-99.99,,,0.00,Acu-Link.com,2013-04-20 03:54:00,
2013-04-19 23:09:00,55.8,33.6,30.04,SSE,157,8.3,-999.0,43,-99.99,,,0.00,Acu-Link.com,2013-04-20 04:09:00,
2013-04-19 23:24:00,54.7,34.3,30.04,SSE,157,6.7,-999.0,46,-99.99,,,0.00,Acu-Link.com,2013-04-20 04:24:00,
2013-04-19 23:39:00,54.5,33.6,30.03,South,180,12.5,-999.0,45,-99.99,,,0.00,Acu-Link.com,2013-04-20 04:39:00,
2013-04-19 23:54:00,54.0,33.7,30.03,SE,135,11.9,-999.0,46,-99.99,,,0.00,Acu-Link.com,2013-04-20 04:54:00,